STARLINK-11581, 63144

Orbit data source: Space-Track

STARLINK-11581, 63144 is a payload satellite owned by SpaceX/Seattle (US) in LEO that was launched on Mon, 03 Mar 2025 UTC via an FALCON 9 launch vehicle from the Air Force Eastern Test Range (AFETR). Payload-class satellites include a variety of spacecraft equipped with specific instruments for various scientific and technological missions. These include communications satellites like Starlink; space stations such as the ISS; scientific satellites like the Hubble; Earth observation satellites from companies like Planet Labs, Umbra, and HawkEye 360; GPS; miniature CubeSats for education and research; and military/defense satellites.

Loading next visibility...
Identifier
63144, 2025-043N
Orbit
LEO
Country
Flag of USUS
Related business
Manufacturer
SpaceX/Seattle
Mission
Operational Commercial Communications
Bus & Motor
STARLINK V2MD, Unknown motor
Mass
960 kg wet, ~910 kg dry
Launch date (UTC)
2025-03-03 (1 year ago)
Launch vehicle
FALCON 9
Launch site
Air Force Eastern Test Range (AFETR)
Object type
Payload
Rocket body
Debris
Shape & HBR
Box + 2 Pan, 18.1 m
Radar Cross Section
36.964 m², Large (>1 m²)

Expand to show TLE details & history
Last TLE update: 5 days ago

TLE from 5 days ago
0 STARLINK-11581
1 63144U 25043N   26155.17486257  .00182963  00000-0  13962-2 0  9993
2 63144  43.0002  89.4426 0001424 248.4413 111.6303 15.70874777 73074
Epoch: 2026-06-04T04:11Z
TLE epoch observation values (Epoch: 2026-06-04T04:11:48.126Z)
Latitude
Longitude
133.86917°
Altitude
356.52 km
Speed
7.697 km/s
True Right ascension
05h 57m 46s
True Declination
0° 00' 00"
Sunlit
Object was in daylight at epoch
Visualization orbit readout
Latitude
Unknown
Longitude
Unknown
Altitude
Unknown
Speed
Unknown
Apparent Right ascension
Unknown
Apparent Declination
Unknown
Sunlit
N/A
Visualization observer readout
Local Sidereal Time
03:43:40
Azimuth
Unknown
Elevation
Unknown
Doppler factor
Unknown
Orbital elements
Apogee altitude
359.337 km
Perigee altitude
357.418 km
Semi-major axis
6,736.514 km
Eccentricity
0.00014
Inclination
43.0002°
RAAN
89.4426°
Arg. of periapsis
248.4413°
True anomaly
111.64547°
Mean anomaly
111.6303°
Eccentric anomaly
111.63788°
Mean motion
3.92546 °/min
Orbital period
91.71 mins
BSTAR
0.0013962
Loading maneuver chart data...
Computing Atmospheric mass density...
Loading historical data...
Loading historical data...
Loading historical data...
Loading historical data...
Loading historical data...
Loading historical data...
Loading historical data...

Documentation

Showing up to 5 results
|